Year,Month,Day,Hour,Minute,Value (Times are PST for temperature in C)
2018,10,22,00,00,5.70
2018,10,22,00,01,5.70
2018,10,22,00,02,5.70
2018,10,22,00,03,5.70
2018,10,22,00,04,5.70
2018,10,22,00,05,5.70
2018,10,22,00,06,5.70
2018,10,22,00,07,5.70
2018,10,22,00,08,5.70
2018,10,22,00,09,5.60
2018,10,22,00,10,5.60
2018,10,22,00,11,5.60
2018,10,22,00,12,5.60
2018,10,22,00,13,5.60
2018,10,22,00,14,5.60
2018,10,22,00,15,5.60
2018,10,22,00,16,5.60
2018,10,22,00,17,5.70
2018,10,22,00,18,5.70
2018,10,22,00,19,5.70
2018,10,22,00,20,5.70
2018,10,22,00,21,5.70
2018,10,22,00,22,5.70
2018,10,22,00,23,5.70
2018,10,22,00,24,5.70
2018,10,22,00,25,5.70
2018,10,22,00,26,5.70
2018,10,22,00,27,5.60
2018,10,22,00,28,5.60
2018,10,22,00,29,5.60
2018,10,22,00,30,5.50
2018,10,22,00,31,5.50
2018,10,22,00,32,5.50
2018,10,22,00,33,5.50
2018,10,22,00,34,5.40
2018,10,22,00,35,5.40
2018,10,22,00,36,5.40
2018,10,22,00,37,5.40
2018,10,22,00,38,5.40
2018,10,22,00,39,5.40
2018,10,22,00,40,5.40
2018,10,22,00,41,5.40
2018,10,22,00,42,5.40
2018,10,22,00,43,5.40
2018,10,22,00,44,5.40
2018,10,22,00,45,5.40
2018,10,22,00,46,5.40
2018,10,22,00,47,5.40
2018,10,22,00,48,5.40
2018,10,22,00,49,5.40
2018,10,22,00,50,5.40
2018,10,22,00,51,5.40
2018,10,22,00,52,5.40
2018,10,22,00,53,5.40
2018,10,22,00,54,5.30
2018,10,22,00,55,5.30
2018,10,22,00,56,5.30
2018,10,22,00,57,5.30
2018,10,22,00,58,5.30
2018,10,22,00,59,5.30
2018,10,22,01,00,5.40
2018,10,22,01,01,5.30
2018,10,22,01,02,5.30
2018,10,22,01,03,5.30
2018,10,22,01,04,5.30
2018,10,22,01,05,5.30
2018,10,22,01,06,5.30
2018,10,22,01,07,5.30
2018,10,22,01,08,5.30
2018,10,22,01,09,5.30
2018,10,22,01,10,5.40
2018,10,22,01,11,5.30
2018,10,22,01,12,5.30
2018,10,22,01,13,5.30
2018,10,22,01,14,5.30
2018,10,22,01,15,5.30
2018,10,22,01,16,5.30
2018,10,22,01,17,5.30
2018,10,22,01,18,5.20
2018,10,22,01,19,5.20
2018,10,22,01,20,5.20
2018,10,22,01,21,5.20
2018,10,22,01,22,5.20
2018,10,22,01,23,5.20
2018,10,22,01,24,5.20
2018,10,22,01,25,5.20
2018,10,22,01,26,5.20
2018,10,22,01,27,5.20
2018,10,22,01,28,5.10
2018,10,22,01,29,5.10
2018,10,22,01,30,5.10
2018,10,22,01,31,5.10
2018,10,22,01,32,5.10
2018,10,22,01,33,5.00
2018,10,22,01,34,5.00
2018,10,22,01,35,5.00
2018,10,22,01,36,5.00
2018,10,22,01,37,4.90
2018,10,22,01,38,4.90
2018,10,22,01,39,4.90
2018,10,22,01,40,4.90
2018,10,22,01,41,4.90
2018,10,22,01,42,4.90
2018,10,22,01,43,4.80
2018,10,22,01,44,4.80
2018,10,22,01,45,4.80
2018,10,22,01,46,4.80
2018,10,22,01,47,4.80
2018,10,22,01,48,4.80
2018,10,22,01,49,4.80
2018,10,22,01,50,4.80
2018,10,22,01,51,4.80
2018,10,22,01,52,4.80
2018,10,22,01,53,4.80
2018,10,22,01,54,4.80
2018,10,22,01,55,4.80
2018,10,22,01,56,4.80
2018,10,22,01,57,4.80
2018,10,22,01,58,4.80
2018,10,22,01,59,4.80
2018,10,22,02,00,4.80
2018,10,22,02,01,4.80
2018,10,22,02,02,4.90
2018,10,22,02,03,4.80
2018,10,22,02,04,4.80
2018,10,22,02,05,4.80
2018,10,22,02,06,4.80
2018,10,22,02,07,4.80
2018,10,22,02,08,4.80
2018,10,22,02,09,4.70
2018,10,22,02,10,4.70
2018,10,22,02,11,4.70
2018,10,22,02,12,4.70
2018,10,22,02,13,4.70
2018,10,22,02,14,4.70
2018,10,22,02,15,4.70
2018,10,22,02,16,4.70
2018,10,22,02,17,4.70
2018,10,22,02,18,4.80
2018,10,22,02,19,4.80
2018,10,22,02,20,4.80
2018,10,22,02,21,4.80
2018,10,22,02,22,4.80
2018,10,22,02,23,4.80
2018,10,22,02,24,4.80
2018,10,22,02,25,4.70
2018,10,22,02,26,4.70
2018,10,22,02,27,4.70
2018,10,22,02,28,4.70
2018,10,22,02,29,4.70
2018,10,22,02,30,4.70
2018,10,22,02,31,4.70
2018,10,22,02,32,4.60
2018,10,22,02,33,4.60
2018,10,22,02,34,4.60
2018,10,22,02,35,4.60
2018,10,22,02,36,4.60
2018,10,22,02,37,4.60
2018,10,22,02,38,4.60
2018,10,22,02,39,4.60
2018,10,22,02,40,4.60
2018,10,22,02,41,4.60
2018,10,22,02,42,4.60
2018,10,22,02,43,4.60
2018,10,22,02,44,4.60
2018,10,22,02,45,4.60
2018,10,22,02,46,4.60
2018,10,22,02,47,4.60
2018,10,22,02,48,4.60
2018,10,22,02,49,4.60
2018,10,22,02,50,4.60
2018,10,22,02,51,4.60
2018,10,22,02,52,4.60
2018,10,22,02,53,4.60
2018,10,22,02,54,4.60
2018,10,22,02,55,4.60
2018,10,22,02,56,4.60
2018,10,22,02,57,4.50
2018,10,22,02,58,4.50
2018,10,22,02,59,4.50
2018,10,22,03,00,4.40
2018,10,22,03,01,4.40
2018,10,22,03,02,4.40
2018,10,22,03,03,4.40
2018,10,22,03,04,4.40
2018,10,22,03,05,4.40
2018,10,22,03,06,4.40
2018,10,22,03,07,4.40
2018,10,22,03,08,4.40
2018,10,22,03,09,4.40
2018,10,22,03,10,4.40
2018,10,22,03,11,4.30
2018,10,22,03,12,4.30
2018,10,22,03,13,4.30
2018,10,22,03,14,4.30
2018,10,22,03,15,4.20
2018,10,22,03,16,4.20
2018,10,22,03,17,4.20
2018,10,22,03,18,4.20
2018,10,22,03,19,4.20
2018,10,22,03,20,4.20
2018,10,22,03,21,4.10
2018,10,22,03,22,4.10
2018,10,22,03,23,4.10
2018,10,22,03,24,4.00
2018,10,22,03,25,4.00
2018,10,22,03,26,4.00
2018,10,22,03,27,4.00
2018,10,22,03,28,4.00
2018,10,22,03,29,3.90
2018,10,22,03,30,4.00
2018,10,22,03,31,4.00
2018,10,22,03,32,4.00
2018,10,22,03,33,4.00
2018,10,22,03,34,4.00
2018,10,22,03,35,4.00
2018,10,22,03,36,4.00
2018,10,22,03,37,3.90
2018,10,22,03,38,3.90
2018,10,22,03,39,3.90
2018,10,22,03,40,3.90
2018,10,22,03,41,3.90
2018,10,22,03,42,3.90
2018,10,22,03,43,3.80
2018,10,22,03,44,3.80
2018,10,22,03,45,3.80
2018,10,22,03,46,3.80
2018,10,22,03,47,3.80
2018,10,22,03,48,3.80
2018,10,22,03,49,3.80
2018,10,22,03,50,3.80
2018,10,22,03,51,3.80
2018,10,22,03,52,3.70
2018,10,22,03,53,3.70
2018,10,22,03,54,3.80
2018,10,22,03,55,3.80
2018,10,22,03,56,3.80
2018,10,22,03,57,3.80
2018,10,22,03,58,3.80
2018,10,22,03,59,3.80
2018,10,22,04,00,3.70
2018,10,22,04,01,3.70
2018,10,22,04,02,3.70
2018,10,22,04,03,3.70
2018,10,22,04,04,3.70
2018,10,22,04,05,3.70
2018,10,22,04,06,3.60
2018,10,22,04,07,3.60
2018,10,22,04,08,3.60
2018,10,22,04,09,3.60
2018,10,22,04,10,3.60
2018,10,22,04,11,3.60
2018,10,22,04,12,3.60
2018,10,22,04,13,3.60
2018,10,22,04,14,3.60
2018,10,22,04,15,3.60
2018,10,22,04,16,3.60
2018,10,22,04,17,3.50
2018,10,22,04,18,3.60
2018,10,22,04,19,3.60
2018,10,22,04,20,3.60
2018,10,22,04,21,3.60
2018,10,22,04,22,3.50
2018,10,22,04,23,3.50
2018,10,22,04,24,3.50
2018,10,22,04,25,3.50
2018,10,22,04,26,3.50
2018,10,22,04,27,3.50
2018,10,22,04,28,3.50
2018,10,22,04,29,3.60
2018,10,22,04,30,3.60
2018,10,22,04,31,3.60
2018,10,22,04,32,3.60
2018,10,22,04,33,3.70
2018,10,22,04,34,3.70
2018,10,22,04,35,3.70
2018,10,22,04,36,3.70
2018,10,22,04,37,3.70
2018,10,22,04,38,3.70
2018,10,22,04,39,3.70
2018,10,22,04,40,3.70
2018,10,22,04,41,3.70
2018,10,22,04,42,3.70
2018,10,22,04,43,3.60
2018,10,22,04,44,3.60
2018,10,22,04,45,3.60
2018,10,22,04,46,3.60
2018,10,22,04,47,3.50
2018,10,22,04,48,3.50
2018,10,22,04,49,3.50
2018,10,22,04,50,3.40
2018,10,22,04,51,3.40
2018,10,22,04,52,3.40
2018,10,22,04,53,3.30
2018,10,22,04,54,3.30
2018,10,22,04,55,3.30
2018,10,22,04,56,3.30
2018,10,22,04,57,3.30
2018,10,22,04,58,3.30
2018,10,22,04,59,3.30
2018,10,22,05,00,3.20
2018,10,22,05,01,3.20
2018,10,22,05,02,3.20
2018,10,22,05,03,3.20
2018,10,22,05,04,3.20
2018,10,22,05,05,3.20
2018,10,22,05,06,3.20
2018,10,22,05,07,3.20
2018,10,22,05,08,3.20
2018,10,22,05,09,3.20
2018,10,22,05,10,3.20
2018,10,22,05,11,3.20
2018,10,22,05,12,3.20
2018,10,22,05,13,3.10
2018,10,22,05,14,3.10
2018,10,22,05,15,3.10
2018,10,22,05,16,3.10
2018,10,22,05,17,3.10
2018,10,22,05,18,3.10
2018,10,22,05,19,3.10
2018,10,22,05,20,3.10
2018,10,22,05,21,3.10
2018,10,22,05,22,3.10
2018,10,22,05,23,3.20
2018,10,22,05,24,3.20
2018,10,22,05,25,3.20
2018,10,22,05,26,3.20
2018,10,22,05,27,3.20
2018,10,22,05,28,3.10
2018,10,22,05,29,3.10
2018,10,22,05,30,3.10
2018,10,22,05,31,3.10
2018,10,22,05,32,3.10
2018,10,22,05,33,3.10
2018,10,22,05,34,3.10
2018,10,22,05,35,3.10
2018,10,22,05,36,3.10
2018,10,22,05,37,3.10
2018,10,22,05,38,3.20
2018,10,22,05,39,3.20
2018,10,22,05,40,3.20
2018,10,22,05,41,3.20
2018,10,22,05,42,3.20
2018,10,22,05,43,3.20
2018,10,22,05,44,3.20
2018,10,22,05,45,3.20
2018,10,22,05,46,3.20
2018,10,22,05,47,3.20
2018,10,22,05,48,3.10
2018,10,22,05,49,3.10
2018,10,22,05,50,3.10
2018,10,22,05,51,3.10
2018,10,22,05,52,3.10
2018,10,22,05,53,3.10
2018,10,22,05,54,3.10
2018,10,22,05,55,3.10
2018,10,22,05,56,3.10
2018,10,22,05,57,3.10
2018,10,22,05,58,3.10
2018,10,22,05,59,3.10
2018,10,22,06,00,3.10
2018,10,22,06,01,3.10
2018,10,22,06,02,3.00
2018,10,22,06,03,3.00
2018,10,22,06,04,3.00
2018,10,22,06,05,3.00
2018,10,22,06,06,3.00
2018,10,22,06,07,3.00
2018,10,22,06,08,3.00
2018,10,22,06,09,3.00
2018,10,22,06,10,3.00
2018,10,22,06,11,3.00
2018,10,22,06,12,2.90
2018,10,22,06,13,2.90
2018,10,22,06,14,2.90
2018,10,22,06,15,2.90
2018,10,22,06,16,3.00
2018,10,22,06,17,3.00
2018,10,22,06,18,3.00
2018,10,22,06,19,3.00
2018,10,22,06,20,3.10
2018,10,22,06,21,3.10
2018,10,22,06,22,3.10
2018,10,22,06,23,3.10
2018,10,22,06,24,3.10
2018,10,22,06,25,3.10
2018,10,22,06,26,3.10
2018,10,22,06,27,3.10
2018,10,22,06,28,3.10
2018,10,22,06,29,3.10
2018,10,22,06,30,3.10
2018,10,22,06,31,3.10
2018,10,22,06,32,3.10
2018,10,22,06,33,3.10
2018,10,22,06,34,3.10
2018,10,22,06,35,3.10
2018,10,22,06,36,3.10
2018,10,22,06,37,3.00
2018,10,22,06,38,3.00
2018,10,22,06,39,3.00
2018,10,22,06,40,3.10
2018,10,22,06,41,3.10
2018,10,22,06,42,3.10
2018,10,22,06,43,3.10
2018,10,22,06,44,3.10
2018,10,22,06,45,3.10
2018,10,22,06,46,3.10
2018,10,22,06,47,3.20
2018,10,22,06,48,3.20
2018,10,22,06,49,3.20
2018,10,22,06,50,3.20
2018,10,22,06,51,3.20
2018,10,22,06,52,3.20
2018,10,22,06,53,3.20
2018,10,22,06,54,3.20
2018,10,22,06,55,3.10
2018,10,22,06,56,3.10
2018,10,22,06,57,3.10
2018,10,22,06,58,3.10
2018,10,22,06,59,3.10
2018,10,22,07,00,3.10
2018,10,22,07,01,3.10
2018,10,22,07,02,3.10
2018,10,22,07,03,3.10
2018,10,22,07,04,3.00
2018,10,22,07,05,3.00
2018,10,22,07,06,3.00
2018,10,22,07,07,3.00
2018,10,22,07,08,2.90
2018,10,22,07,09,2.90
2018,10,22,07,10,2.90
2018,10,22,07,11,2.90
2018,10,22,07,12,2.90
2018,10,22,07,13,2.90
2018,10,22,07,14,2.90
2018,10,22,07,15,2.90
2018,10,22,07,16,2.80
2018,10,22,07,17,2.80
2018,10,22,07,18,2.80
2018,10,22,07,19,2.80
2018,10,22,07,20,2.80
2018,10,22,07,21,2.80
2018,10,22,07,22,2.80
2018,10,22,07,23,2.80
2018,10,22,07,24,2.80
2018,10,22,07,25,2.70
2018,10,22,07,26,2.70
2018,10,22,07,27,2.70
2018,10,22,07,28,2.70
2018,10,22,07,29,2.70
2018,10,22,07,30,2.70
2018,10,22,07,31,2.70
2018,10,22,07,32,2.70
2018,10,22,07,33,2.70
2018,10,22,07,34,2.70
2018,10,22,07,35,2.70
2018,10,22,07,36,2.80
2018,10,22,07,37,2.80
2018,10,22,07,38,2.80
2018,10,22,07,39,2.80
2018,10,22,07,40,2.80
2018,10,22,07,41,2.80
2018,10,22,07,42,2.80
2018,10,22,07,43,2.80
2018,10,22,07,44,2.90
2018,10,22,07,45,2.90
2018,10,22,07,46,2.90
2018,10,22,07,47,2.90
2018,10,22,07,48,2.90
2018,10,22,07,49,2.90
2018,10,22,07,50,2.90
2018,10,22,07,51,2.90
2018,10,22,07,52,2.90
2018,10,22,07,53,3.00
2018,10,22,07,54,3.00
2018,10,22,07,55,3.00
2018,10,22,07,56,3.00
2018,10,22,07,57,3.00
2018,10,22,07,58,3.00
2018,10,22,07,59,3.10
2018,10,22,08,00,3.10
2018,10,22,08,01,3.10
2018,10,22,08,02,3.10
2018,10,22,08,03,3.10
2018,10,22,08,04,3.10
2018,10,22,08,05,3.10
2018,10,22,08,06,3.10
2018,10,22,08,07,3.10
2018,10,22,08,08,3.10
2018,10,22,08,09,3.10
2018,10,22,08,10,3.10
2018,10,22,08,11,3.10
2018,10,22,08,12,3.10
2018,10,22,08,13,3.10
2018,10,22,08,14,3.10
2018,10,22,08,15,3.10
2018,10,22,08,16,3.10
2018,10,22,08,17,3.10
2018,10,22,08,18,3.10
2018,10,22,08,19,3.10
2018,10,22,08,20,3.10
2018,10,22,08,21,3.10
2018,10,22,08,22,3.20
2018,10,22,08,23,3.20
2018,10,22,08,24,3.20
2018,10,22,08,25,3.20
2018,10,22,08,26,3.20
2018,10,22,08,27,3.20
2018,10,22,08,28,3.20
2018,10,22,08,29,3.30
2018,10,22,08,30,3.30
2018,10,22,08,31,3.30
2018,10,22,08,32,3.40
2018,10,22,08,33,3.40
2018,10,22,08,34,3.50
2018,10,22,08,35,3.50
2018,10,22,08,36,3.60
2018,10,22,08,37,3.60
2018,10,22,08,38,3.70
2018,10,22,08,39,3.70
2018,10,22,08,40,3.70
2018,10,22,08,41,3.70
2018,10,22,08,42,3.80
2018,10,22,08,43,3.80
2018,10,22,08,44,3.80
2018,10,22,08,45,3.90
2018,10,22,08,46,3.90
2018,10,22,08,47,3.90
2018,10,22,08,48,4.00
2018,10,22,08,49,4.00
2018,10,22,08,50,4.00
2018,10,22,08,51,4.00
2018,10,22,08,52,4.10
2018,10,22,08,53,4.10
2018,10,22,08,54,4.10
2018,10,22,08,55,4.20
2018,10,22,08,56,4.30
2018,10,22,08,57,4.40
2018,10,22,08,58,4.50
2018,10,22,08,59,4.50
2018,10,22,09,00,4.60
2018,10,22,09,01,4.70
2018,10,22,09,02,4.80
2018,10,22,09,03,4.90
2018,10,22,09,04,5.00
2018,10,22,09,05,5.20
2018,10,22,09,06,5.30
2018,10,22,09,07,5.40
2018,10,22,09,08,5.50
2018,10,22,09,09,5.60
2018,10,22,09,10,5.70
2018,10,22,09,11,5.80
2018,10,22,09,12,5.90
2018,10,22,09,13,6.10
2018,10,22,09,14,6.10
2018,10,22,09,15,6.20
2018,10,22,09,16,6.30
2018,10,22,09,17,6.30
2018,10,22,09,18,6.40
2018,10,22,09,19,6.50
2018,10,22,09,20,6.60
2018,10,22,09,21,6.60
2018,10,22,09,22,6.70
2018,10,22,09,23,6.80
2018,10,22,09,24,6.80
2018,10,22,09,25,6.80
2018,10,22,09,26,6.90
2018,10,22,09,27,6.90
2018,10,22,09,28,6.90
2018,10,22,09,29,6.90
2018,10,22,09,30,6.90
2018,10,22,09,31,6.90
2018,10,22,09,32,6.90
2018,10,22,09,33,7.00
2018,10,22,09,34,7.10
2018,10,22,09,35,7.10
2018,10,22,09,36,7.20
2018,10,22,09,37,7.30
2018,10,22,09,38,7.40
2018,10,22,09,39,7.40
2018,10,22,09,40,7.50
2018,10,22,09,41,7.60
2018,10,22,09,42,7.60
2018,10,22,09,43,7.70
2018,10,22,09,44,7.70
2018,10,22,09,45,7.70
2018,10,22,09,46,7.70
2018,10,22,09,47,7.70
2018,10,22,09,48,7.80
2018,10,22,09,49,7.80
2018,10,22,09,50,7.90
2018,10,22,09,51,7.90
2018,10,22,09,52,8.00
2018,10,22,09,53,8.00
2018,10,22,09,54,8.10
2018,10,22,09,55,8.10
2018,10,22,09,56,8.20
2018,10,22,09,57,8.30
2018,10,22,09,58,8.40
2018,10,22,09,59,8.40
2018,10,22,10,00,8.50
2018,10,22,10,01,8.60
2018,10,22,10,02,8.70
2018,10,22,10,03,8.80
2018,10,22,10,04,8.90
2018,10,22,10,05,8.90
2018,10,22,10,06,9.00
2018,10,22,10,07,9.10
2018,10,22,10,08,9.10
2018,10,22,10,09,9.20
2018,10,22,10,10,9.30
2018,10,22,10,11,9.30
2018,10,22,10,12,9.40
2018,10,22,10,13,9.40
2018,10,22,10,14,9.50
2018,10,22,10,15,9.60
2018,10,22,10,16,9.60
2018,10,22,10,17,9.70
2018,10,22,10,18,9.80
2018,10,22,10,19,9.80
2018,10,22,10,20,9.80
2018,10,22,10,21,9.90
2018,10,22,10,22,9.90
2018,10,22,10,23,9.90
2018,10,22,10,24,9.90
2018,10,22,10,25,9.90
2018,10,22,10,26,9.90
2018,10,22,10,27,10.00
2018,10,22,10,28,10.00
2018,10,22,10,29,10.10
2018,10,22,10,30,10.10
2018,10,22,10,31,10.10
2018,10,22,10,32,10.20
2018,10,22,10,33,10.20
2018,10,22,10,34,10.20
2018,10,22,10,35,10.30
2018,10,22,10,36,10.30
2018,10,22,10,37,10.30
2018,10,22,10,38,10.30
2018,10,22,10,39,10.40
2018,10,22,10,40,10.50
2018,10,22,10,41,10.60
2018,10,22,10,42,10.60
2018,10,22,10,43,10.70
2018,10,22,10,44,10.70
2018,10,22,10,45,10.80
2018,10,22,10,46,10.80
2018,10,22,10,47,10.80
2018,10,22,10,48,10.80
2018,10,22,10,49,10.80
2018,10,22,10,50,10.90
2018,10,22,10,51,10.90
2018,10,22,10,52,10.90
2018,10,22,10,53,10.90
2018,10,22,10,54,10.90
2018,10,22,10,55,11.00
2018,10,22,10,56,11.00
2018,10,22,10,57,11.00
2018,10,22,10,58,11.10
2018,10,22,10,59,11.10
2018,10,22,11,00,11.10
2018,10,22,11,01,11.20
2018,10,22,11,02,11.30
2018,10,22,11,03,11.30
2018,10,22,11,04,11.40
2018,10,22,11,05,11.40
2018,10,22,11,06,11.50
2018,10,22,11,07,11.60
2018,10,22,11,08,11.60
2018,10,22,11,09,11.70
2018,10,22,11,10,11.80
2018,10,22,11,11,11.90
2018,10,22,11,12,11.90
2018,10,22,11,13,11.90
2018,10,22,11,14,11.90
2018,10,22,11,15,11.90
2018,10,22,11,16,11.90
2018,10,22,11,17,11.90
2018,10,22,11,18,12.00
2018,10,22,11,19,12.00
2018,10,22,11,20,12.00
2018,10,22,11,21,12.00
2018,10,22,11,22,12.00
2018,10,22,11,23,12.00
2018,10,22,11,24,12.00
2018,10,22,11,25,11.90
2018,10,22,11,26,11.90
2018,10,22,11,27,12.00
2018,10,22,11,28,12.00
2018,10,22,11,29,12.10
2018,10,22,11,30,12.20
2018,10,22,11,31,12.20
2018,10,22,11,32,12.20
2018,10,22,11,33,12.30
2018,10,22,11,34,12.30
2018,10,22,11,35,12.40
2018,10,22,11,36,12.60
2018,10,22,11,37,12.60
2018,10,22,11,38,12.60
2018,10,22,11,39,12.60
2018,10,22,11,40,12.60
2018,10,22,11,41,12.70
2018,10,22,11,42,12.80
2018,10,22,11,43,12.80
2018,10,22,11,44,12.90
2018,10,22,11,45,12.90
2018,10,22,11,46,12.90
2018,10,22,11,47,12.90
2018,10,22,11,48,12.90
2018,10,22,11,49,12.80
2018,10,22,11,50,12.80
2018,10,22,11,51,12.90
2018,10,22,11,52,12.90
2018,10,22,11,53,13.00
2018,10,22,11,54,13.00
2018,10,22,11,55,13.10
2018,10,22,11,56,13.10
2018,10,22,11,57,13.10
2018,10,22,11,58,13.20
2018,10,22,11,59,13.20
2018,10,22,12,00,13.20
2018,10,22,12,01,13.20
2018,10,22,12,02,13.20
2018,10,22,12,03,13.10
2018,10,22,12,04,13.10
2018,10,22,12,05,13.20
2018,10,22,12,06,13.20
2018,10,22,12,07,13.20
2018,10,22,12,08,13.30
2018,10,22,12,09,13.40
2018,10,22,12,10,13.50
2018,10,22,12,11,13.60
2018,10,22,12,12,13.60
2018,10,22,12,13,13.70
2018,10,22,12,14,13.70
2018,10,22,12,15,13.80
2018,10,22,12,16,13.80
2018,10,22,12,17,13.80
2018,10,22,12,18,13.90
2018,10,22,12,19,13.80
2018,10,22,12,20,13.90
2018,10,22,12,21,13.90
2018,10,22,12,22,14.00
2018,10,22,12,23,14.00
2018,10,22,12,24,14.10
2018,10,22,12,25,14.20
2018,10,22,12,26,14.20
2018,10,22,12,27,14.20
2018,10,22,12,28,14.20
2018,10,22,12,29,14.10
2018,10,22,12,30,14.10
2018,10,22,12,31,14.20
2018,10,22,12,32,14.20
2018,10,22,12,33,14.30
2018,10,22,12,34,14.40
2018,10,22,12,35,14.40
2018,10,22,12,36,14.40
2018,10,22,12,37,14.40
2018,10,22,12,38,14.50
2018,10,22,12,39,14.50
2018,10,22,12,40,14.60
2018,10,22,12,41,14.70
2018,10,22,12,42,14.80
2018,10,22,12,43,14.80
2018,10,22,12,44,14.80
2018,10,22,12,45,14.70
2018,10,22,12,46,14.70
2018,10,22,12,47,14.70
2018,10,22,12,48,14.60
2018,10,22,12,49,14.50
2018,10,22,12,50,14.40
2018,10,22,12,51,14.30
2018,10,22,12,52,14.30
2018,10,22,12,53,14.20
2018,10,22,12,54,14.20
2018,10,22,12,55,14.30
2018,10,22,12,56,14.40
2018,10,22,12,57,14.40
2018,10,22,12,58,14.40
2018,10,22,12,59,14.50
2018,10,22,13,00,14.60
2018,10,22,13,01,14.70
2018,10,22,13,02,14.70
2018,10,22,13,03,14.70
2018,10,22,13,04,14.70
2018,10,22,13,05,14.60
2018,10,22,13,06,14.60
2018,10,22,13,07,14.70
2018,10,22,13,08,14.80
2018,10,22,13,09,14.90
2018,10,22,13,10,14.90
2018,10,22,13,11,14.90
2018,10,22,13,12,14.80
2018,10,22,13,13,14.70
2018,10,22,13,14,14.60
2018,10,22,13,15,14.60
2018,10,22,13,16,14.70
2018,10,22,13,17,14.70
2018,10,22,13,18,14.70
2018,10,22,13,19,14.70
2018,10,22,13,20,14.70
2018,10,22,13,21,14.80
2018,10,22,13,22,14.80
2018,10,22,13,23,14.90
2018,10,22,13,24,15.00
2018,10,22,13,25,15.00
2018,10,22,13,26,15.00
2018,10,22,13,27,15.10
2018,10,22,13,28,15.10
2018,10,22,13,29,15.10
2018,10,22,13,30,15.10
2018,10,22,13,31,15.20
2018,10,22,13,32,15.20
2018,10,22,13,33,15.20
2018,10,22,13,34,15.30
2018,10,22,13,35,15.30
2018,10,22,13,36,15.20
2018,10,22,13,37,15.10
2018,10,22,13,38,15.00
2018,10,22,13,39,15.00
2018,10,22,13,40,15.00
2018,10,22,13,41,15.00
2018,10,22,13,42,15.00
2018,10,22,13,43,15.00
2018,10,22,13,44,15.00
2018,10,22,13,45,15.00
2018,10,22,13,46,15.00
2018,10,22,13,47,15.00
2018,10,22,13,48,15.00
2018,10,22,13,49,15.00
2018,10,22,13,50,15.00
2018,10,22,13,51,15.00
2018,10,22,13,52,15.00
2018,10,22,13,53,15.00
2018,10,22,13,54,15.00
2018,10,22,13,55,15.00
2018,10,22,13,56,15.00
2018,10,22,13,57,15.00
2018,10,22,13,58,15.00
2018,10,22,13,59,15.00
2018,10,22,14,00,15.00
2018,10,22,14,01,15.00
2018,10,22,14,02,15.10
2018,10,22,14,03,15.20
2018,10,22,14,04,15.30
2018,10,22,14,05,15.40
2018,10,22,14,06,15.40
2018,10,22,14,07,15.50
2018,10,22,14,08,15.50
2018,10,22,14,09,15.50
2018,10,22,14,10,15.60
2018,10,22,14,11,15.70
2018,10,22,14,12,15.70
2018,10,22,14,13,15.70
2018,10,22,14,14,15.80
2018,10,22,14,15,15.80
2018,10,22,14,16,15.70
2018,10,22,14,17,15.70
2018,10,22,14,18,15.70
2018,10,22,14,19,15.60
2018,10,22,14,20,15.60
2018,10,22,14,21,15.60
2018,10,22,14,22,15.60
2018,10,22,14,23,15.70
2018,10,22,14,24,15.70
2018,10,22,14,25,15.70
2018,10,22,14,26,15.60
2018,10,22,14,27,15.60
2018,10,22,14,28,15.60
2018,10,22,14,29,15.60
2018,10,22,14,30,15.60
2018,10,22,14,31,15.70
2018,10,22,14,32,15.70
2018,10,22,14,33,15.70
2018,10,22,14,34,15.80
2018,10,22,14,35,15.80
2018,10,22,14,36,15.90
2018,10,22,14,37,15.90
2018,10,22,14,38,16.00
2018,10,22,14,39,16.10
2018,10,22,14,40,16.20
2018,10,22,14,41,16.30
2018,10,22,14,42,16.30
2018,10,22,14,43,16.40
2018,10,22,14,44,16.50
2018,10,22,14,45,16.60
2018,10,22,14,46,16.70
2018,10,22,14,47,16.80
2018,10,22,14,48,16.90
2018,10,22,14,49,17.00
2018,10,22,14,50,17.00
2018,10,22,14,51,17.10
2018,10,22,14,52,17.10
2018,10,22,14,53,17.00
2018,10,22,14,54,16.90
2018,10,22,14,55,16.80
2018,10,22,14,56,16.70
2018,10,22,14,57,16.70
2018,10,22,14,58,16.70
2018,10,22,14,59,16.60
2018,10,22,15,00,16.40
2018,10,22,15,01,16.20
2018,10,22,15,02,16.00
2018,10,22,15,03,15.90
2018,10,22,15,04,15.80
2018,10,22,15,05,15.80
2018,10,22,15,06,15.80
2018,10,22,15,07,15.80
2018,10,22,15,08,15.90
2018,10,22,15,09,16.00
2018,10,22,15,10,16.00
2018,10,22,15,11,16.10
2018,10,22,15,12,16.20
2018,10,22,15,13,16.20
2018,10,22,15,14,16.20
2018,10,22,15,15,16.30
2018,10,22,15,16,16.40
2018,10,22,15,17,16.50
2018,10,22,15,18,16.50
2018,10,22,15,19,16.50
2018,10,22,15,20,16.40
2018,10,22,15,21,16.40
2018,10,22,15,22,16.30
2018,10,22,15,23,16.20
2018,10,22,15,24,16.20
2018,10,22,15,25,16.20
2018,10,22,15,26,16.30
2018,10,22,15,27,16.30
2018,10,22,15,28,16.40
2018,10,22,15,29,16.40
2018,10,22,15,30,16.50
2018,10,22,15,31,16.60
2018,10,22,15,32,16.70
2018,10,22,15,33,16.80
2018,10,22,15,34,16.80
2018,10,22,15,35,16.80
2018,10,22,15,36,16.70
2018,10,22,15,37,16.60
2018,10,22,15,38,16.50
2018,10,22,15,39,16.50
2018,10,22,15,40,16.40
2018,10,22,15,41,16.40
2018,10,22,15,42,16.40
2018,10,22,15,43,16.20
2018,10,22,15,44,16.10
2018,10,22,15,45,16.00
2018,10,22,15,46,16.00
2018,10,22,15,47,15.90
2018,10,22,15,48,15.90
2018,10,22,15,49,15.80
2018,10,22,15,50,15.80
2018,10,22,15,51,15.80
2018,10,22,15,52,15.80
2018,10,22,15,53,15.80
2018,10,22,15,54,15.80
2018,10,22,15,55,15.80
2018,10,22,15,56,15.70
2018,10,22,15,57,15.60
2018,10,22,15,58,15.40
2018,10,22,15,59,15.30
2018,10,22,16,00,15.20
2018,10,22,16,01,15.10
2018,10,22,16,02,15.10
2018,10,22,16,03,15.00
2018,10,22,16,04,15.00
2018,10,22,16,05,15.00
2018,10,22,16,06,15.00
2018,10,22,16,07,15.00
2018,10,22,16,08,15.00
2018,10,22,16,09,15.00
2018,10,22,16,10,15.00
2018,10,22,16,11,15.10
2018,10,22,16,12,15.20
2018,10,22,16,13,15.20
2018,10,22,16,14,15.20
2018,10,22,16,15,15.20
2018,10,22,16,16,15.30
2018,10,22,16,17,15.30
2018,10,22,16,18,15.40
2018,10,22,16,19,15.40
2018,10,22,16,20,15.40
2018,10,22,16,21,15.40
2018,10,22,16,22,15.40
2018,10,22,16,23,15.40
2018,10,22,16,24,15.50
2018,10,22,16,25,15.50
2018,10,22,16,26,15.50
2018,10,22,16,27,15.50
2018,10,22,16,28,15.50
2018,10,22,16,29,15.50
2018,10,22,16,30,15.60
2018,10,22,16,31,15.60
2018,10,22,16,32,15.60
2018,10,22,16,33,15.60
2018,10,22,16,34,15.60
2018,10,22,16,35,15.50
2018,10,22,16,36,15.40
2018,10,22,16,37,15.30
2018,10,22,16,38,15.20
2018,10,22,16,39,15.10
2018,10,22,16,40,15.00
2018,10,22,16,41,15.00
2018,10,22,16,42,15.00
2018,10,22,16,43,15.00
2018,10,22,16,44,15.00
2018,10,22,16,45,15.00
2018,10,22,16,46,15.00
2018,10,22,16,47,15.00
2018,10,22,16,48,15.00
2018,10,22,16,49,15.00
2018,10,22,16,50,15.00
2018,10,22,16,51,15.00
2018,10,22,16,52,15.00
2018,10,22,16,53,15.00
2018,10,22,16,54,15.00
2018,10,22,16,55,15.00
2018,10,22,16,56,15.00
2018,10,22,16,57,15.00
2018,10,22,16,58,15.00
2018,10,22,16,59,15.00
2018,10,22,17,00,15.00
2018,10,22,17,01,15.00
2018,10,22,17,02,15.00
2018,10,22,17,03,15.00
2018,10,22,17,04,15.00
2018,10,22,17,05,15.00
2018,10,22,17,06,15.00
2018,10,22,17,07,15.00
2018,10,22,17,08,15.00
2018,10,22,17,09,15.00
2018,10,22,17,10,15.00
2018,10,22,17,11,15.00
2018,10,22,17,12,15.00
2018,10,22,17,13,15.00
2018,10,22,17,14,15.00
2018,10,22,17,15,15.00
2018,10,22,17,16,15.00
2018,10,22,17,17,14.90
2018,10,22,17,18,14.80
2018,10,22,17,19,14.70
2018,10,22,17,20,14.60
2018,10,22,17,21,14.60
2018,10,22,17,22,14.60
2018,10,22,17,23,14.50
2018,10,22,17,24,14.50
2018,10,22,17,25,14.40
2018,10,22,17,26,14.40
2018,10,22,17,27,14.30
2018,10,22,17,28,14.30
2018,10,22,17,29,14.20
2018,10,22,17,30,14.20
2018,10,22,17,31,14.20
2018,10,22,17,32,14.10
2018,10,22,17,33,14.10
2018,10,22,17,34,14.10
2018,10,22,17,35,14.00
2018,10,22,17,36,14.00
2018,10,22,17,37,14.00
2018,10,22,17,38,13.90
2018,10,22,17,39,13.90
2018,10,22,17,40,13.90
2018,10,22,17,41,13.80
2018,10,22,17,42,13.80
2018,10,22,17,43,13.70
2018,10,22,17,44,13.70
2018,10,22,17,45,13.70
2018,10,22,17,46,13.60